OPS 4682 DEB, 38362

Orbit data source: Space-Track

OPS 4682 DEB, 38362 is space debris in LEO originally from a launch on Sat, 03 Apr 1965 UTC launched from the Air Force Western Test Range (AFWTR). Debris objects in space refer to the collection of defunct objects orbiting the Earth. Examples of debris include non-operational satellites, rocket bodies, and fragments generated from explosions, collisions, or faulty payload assembly.

Loading next visibility...
Identifier
38362, 1965-027BP
Orbit
LEO
Country
Flag of USUS
Related business
Manufacturer
Unknown
Mission
Spacecraft
Bus & Motor
Unknown
Mass
Unknown
Launch date (UTC)
1965-04-03 (61 years ago)
Launch vehicle
Unknown
Launch site
Air Force Western Test Range (AFWTR)
Object type
Payload
Rocket body
Debris
Shape & HBR
Unknown shape, 0.1 m
Radar Cross Section
Small (<0.1 m²)

Expand to show TLE details & history
Last TLE update: 1 day ago

TLE from 1 day ago
0 OPS 4682 DEB
1 38362U 65027BP  26102.98547286 -.00000141  00000-0 -50942-3 0  9993
2 38362  90.2510   9.5080 0043790 294.7517  64.9050 12.97060908454943
Epoch: 2026-04-12T23:39Z
TLE epoch observation values (Epoch: 2026-04-12T23:39:04.855Z)
Latitude
0.00003°
Longitude
173.5552°
Altitude
1,262.41 km
Speed
7.231 km/s
True Right ascension
00h 38m 01s
True Declination
0° 00' 00"
Sunlit
Object was in daylight at epoch
Visualization orbit readout
Latitude
Unknown
Longitude
Unknown
Altitude
Unknown
Speed
Unknown
Apparent Right ascension
Unknown
Apparent Declination
Unknown
Sunlit
N/A
Visualization observer readout
Local Sidereal Time
14:55:19
Azimuth
Unknown
Elevation
Unknown
Doppler factor
Unknown
Orbital elements
Apogee altitude
1,304.25 km
Perigee altitude
1,237.261 km
Semi-major axis
7,648.892 km
Eccentricity
0.00438
Inclination
90.251°
RAAN
9.508°
Arg. of periapsis
294.7517°
True anomaly
65.36048°
Mean anomaly
64.905°
Eccentric anomaly
65.13264°
Mean motion
3.24448 °/min
Orbital period
110.96 mins
BSTAR
-0.00050942
Loading maneuver chart data...
Computing Atmospheric mass density...
Loading historical data...
Loading historical data...
Loading historical data...
Loading historical data...
Loading historical data...
Loading historical data...
Loading historical data...

Documentation

Showing up to 5 results
|